Wind_Speed
40 39 37 36 36 35 34 33 33 32 30 29 28 27 26 25 24 23 23 23 22 22 22 22 21 21 21 22 22 22 22 23 23 23 23 23 24 24 24 25 25 25 25
41 39 38 38 36 36 36 35 34 34 32 31 29 28 28 26 26 25 24 24 24 23 24 24 23 23 24 24 24 24 24 24 24 24 25 25 25 26 26 26 27 27 28
42 41 40 39 38 37 37 36 35 34 35 33 31 30 29 29 27 27 26 26 25 25 25 25 25 26 26 26 26 26 26 26 26 27 27 28 28 28 28 29 29 30 30
43 43 41 41 39 38 38 37 36 36 36 36 34 32 31 30 29 28 27 27 27 27 27 27 27 27 27 27 27 28 28 28 28 29 29 30 30 30 31 31 31 32 32
43 43 42 42 41 39 38 37 38 37 37 37 36 34 33 31 30 29 29 29 29 29 29 28 29 29 28 29 29 29 29 29 30 30 31 31 32 32 33 33 33 34 34
43 42 42 41 40 38 38 37 37 37 37 37 36 35 34 33 32 31 31 31 31 31 30 30 30 31 30 30 31 31 31 31 32 32 33 33 33 34 34 35 35 36 36
43 42 43 41 40 40 40 38 37 38 38 38 37 36 36 35 34 33 34 33 33 33 33 33 34 34 33 33 33 33 33 34 35 36 36 36 36 36 37 37 37 38 38
43 42 42 42 40 40 40 40 38 38 37 38 39 39 38 37 36 36 36 36 36 35 36 35 36 36 37 36 36 36 37 36 36 37 38 38 39 39 39 39 40 40 41
41 42 42 43 43 41 40 40 39 39 38 39 40 41 41 40 39 38 38 38 37 37 37 37 37 38 37 38 38 39 40 39 39 39 39 40 40 41 41 42 43 43 44
40 42 42 42 42 42 41 40 40 40 40 40 40 40 40 40 40 39 39 40 40 39 39 39 40 40 39 39 40 40 41 40 40 41 42 42 43 43 44 45 45 46 46
40 42 44 43 41 40 41 41 41 41 41 41 41 41 41 40 40 41 40 40 40 41 41 41 42 42 41 41 42 42 42 43 42 43 44 44 45 46 46 46 47 48 48
38 40 43 44 42 40 40 41 41 42 42 41 41 41 41 41 41 41 41 41 41 42 42 42 43 43 44 43 44 44 44 44 44 45 46 46 47 48 48 49 49 49 49
37 39 41 44 44 42 41 40 41 40 40 41 40 40 42 42 42 42 42 42 42 42 43 44 44 45 46 47 47 46 46 46 46 47 48 49 49 49 50 50 50 50 51
37 38 40 42 43 43 44 43 42 42 42 43 43 42 43 44 44 44 44 44 44 44 45 46 47 47 48 48 48 48 48 48 49 50 50 50 51 51 52 52 52 53 53
36 36 38 40 41 41 41 41 42 42 43 44 44 44 45 45 45 46 46 46 46 47 47 48 49 48 48 48 49 49 50 50 51 51 52 52 53 53 53 53 54 54 53
35 35 38 38 38 38 39 40 41 43 43 43 42 43 44 45 45 45 46 46 46 47 48 48 48 49 49 50 50 51 52 52 53 54 54 54 54 54 54 55 55 55 55
34 35 36 36 37 38 39 40 41 43 43 42 42 43 44 44 44 45 46 46 47 47 48 48 49 50 51 52 52 53 54 54 54 54 55 55 55 55 55 55 55 56 56
35 35 36 37 38 38 39 40 40 41 42 42 43 44 45 44 44 45 45 46 47 48 48 49 50 51 52 53 54 55 55 54 54 54 55 56 56 56 56 56 57 57 57
35 35 36 37 39 39 39 40 40 41 42 43 44 44 44 45 45 46 46 47 48 48 48 50 51 52 53 54 54 55 55 55 55 55 55 56 56 56 57 57 58 58 58
35 36 37 38 39 39 39 39 40 42 43 44 44 45 45 46 46 47 47 48 49 49 50 51 52 53 54 55 55 55 55 56 56 55 55 56 56 57 58 58 58 58 58
34 35 36 37 38 39 39 39 40 41 43 44 45 45 45 46 46 47 48 48 49 50 52 52 53 54 54 55 55 55 55 55 56 56 56 57 56 57 57 58 57 57 57
35 36 36 36 38 39 39 40 41 41 42 43 44 45 45 46 47 48 49 50 51 52 53 53 53 54 54 55 55 55 55 55 56 56 57 56 56 56 56 57 57 58 58
35 36 36 37 38 39 40 41 41 42 43 43 44 45 46 48 49 50 51 52 53 54 54 55 54 54 55 55 55 55 56 56 56 56 56 56 57 56 56 57 58 58 58
33 34 35 37 38 39 41 42 43 44 44 45 46 47 48 49 51 52 52 53 53 54 54 54 54 54 55 55 56 56 56 56 56 57 57 57 57 57 57 57 57 57 57
34 36 36 37 38 40 42 44 44 45 46 47 49 49 49 50 50 51 52 53 53 53 53 54 54 55 56 56 56 57 57 57 56 56 57 57 56 56 56 56 56 56 55
35 37 38 39 40 41 43 44 44 45 47 48 50 51 51 51 51 51 52 53 53 53 54 54 54 54 55 55 56 56 57 57 56 56 55 56 55 55 54 55 55 55 54
Wind_Direction
229 231 232 233 232 232 232 233 233 233 233 234 236 238 241 245 249 253 256 258 261 263 265 268 271 274 277 278 280 282 285 286 287 288 289 290 292 293 294 295 295 295 295
229 231 231 231 232 232 233 235 234 234 233 234 237 238 240 243 248 252 256 259 261 263 266 268 269 273 275 277 278 281 283 284 285 287 288 289 291 291 292 293 293 293 294
229 231 232 232 231 232 234 235 235 235 236 236 237 239 241 245 249 252 255 259 261 264 267 269 270 272 274 276 278 280 283 284 284 285 286 287 288 289 291 291 292 292 292
229 230 231 231 232 233 234 235 236 236 238 238 238 240 243 247 249 252 255 258 261 264 267 270 271 272 274 277 278 280 281 283 283 284 284 285 286 288 289 290 291 291 291
228 230 230 231 232 233 233 234 237 236 237 239 239 240 243 247 249 252 255 258 261 264 267 270 271 272 273 275 277 278 280 281 282 283 283 284 286 287 288 289 290 290 290
228 229 229 231 231 231 232 235 237 236 237 239 240 242 244 248 251 254 257 259 261 263 266 269 271 271 272 273 275 276 278 280 281 282 283 284 285 287 288 289 289 289 289
226 228 229 231 232 233 235 236 237 237 237 239 242 244 246 249 252 255 257 259 260 262 265 268 270 271 272 273 274 276 278 280 281 281 282 283 284 286 287 287 289 289 289
225 226 228 229 231 234 236 237 237 238 238 240 242 245 247 250 253 257 259 260 261 263 266 268 270 271 273 274 274 276 278 280 282 282 282 283 284 285 286 287 288 288 289
224 226 227 228 230 233 236 236 236 238 240 242 244 247 249 251 254 258 260 261 263 265 267 268 269 270 273 275 274 276 277 279 281 282 283 283 284 285 285 286 287 288 288
226 227 228 229 231 234 236 237 238 241 242 243 245 248 251 253 256 258 260 262 263 265 266 268 270 271 273 274 274 276 277 278 280 282 283 284 285 285 286 286 287 287 287
228 229 229 230 232 235 236 238 239 241 242 243 246 249 252 255 256 258 260 263 265 267 267 269 270 271 272 274 274 275 278 279 280 281 282 284 285 286 286 287 287 287 287
230 232 230 231 233 235 236 238 240 241 242 245 247 250 254 256 258 260 262 264 266 268 270 271 271 271 272 274 275 277 278 279 280 281 282 284 285 285 286 286 287 287 287
233 233 231 232 234 236 236 239 242 243 244 246 248 252 254 256 259 261 263 265 266 268 270 271 272 272 273 274 276 277 278 279 281 282 283 284 284 285 286 286 286 286 286
235 235 235 235 236 238 241 243 245 246 248 249 250 254 256 259 261 262 263 265 266 268 270 272 272 273 273 274 275 276 278 279 281 282 283 284 284 285 286 286 286 286 286
235 237 238 237 238 240 242 245 248 250 252 253 254 256 258 259 261 263 265 267 268 270 271 273 274 274 274 274 275 277 278 279 281 282 283 284 285 285 286 286 286 286 286
236 238 240 239 239 242 244 247 250 252 254 254 255 256 258 259 261 264 266 267 269 270 272 274 274 275 275 275 276 277 278 279 281 282 284 284 284 286 286 286 286 286 286
240 242 242 242 244 247 248 250 252 253 254 255 255 257 259 260 262 264 265 266 268 270 272 274 276 277 277 278 278 278 278 280 281 282 283 284 285 285 286 286 286 286 286
243 243 244 245 247 248 250 251 254 254 255 256 257 259 260 260 261 263 265 267 269 271 273 275 276 277 278 278 279 280 280 281 282 283 283 284 285 286 286 286 286 286 286
245 245 246 248 249 249 250 253 255 256 256 256 257 259 259 260 261 263 265 267 270 272 274 276 276 277 277 278 280 281 281 281 281 283 284 285 285 285 285 285 286 286 285
246 245 247 249 251 250 252 254 255 256 255 255 256 258 259 260 262 264 266 269 271 273 275 276 276 277 278 279 280 281 282 283 283 283 284 285 285 285 285 286 286 286 285
250 249 249 251 252 252 253 254 254 255 256 256 257 258 260 261 263 266 268 270 272 273 275 275 277 277 278 279 280 281 282 283 283 284 284 284 285 285 285 285 285 284 284
254 252 252 252 253 254 254 255 256 257 258 259 259 261 262 264 266 268 270 271 273 275 276 276 277 278 279 280 280 281 282 283 284 284 284 284 284 285 285 285 285 285 284
256 255 255 255 254 254 255 255 256 258 260 260 261 263 265 267 268 270 272 273 274 275 276 276 277 279 280 280 280 281 282 283 284 284 285 285 285 285 285 286 286 286 286
257 257 257 257 257 257 258 258 260 261 263 263 263 264 266 268 269 271 273 274 275 275 275 276 277 278 278 279 280 281 283 283 283 284 284 285 284 285 285 286 287 287 287
261 260 260 261 262 262 261 262 263 264 265 265 264 265 267 269 271 272 273 274 275 275 276 277 277 278 279 280 281 282 283 283 283 283 284 285 285 285 286 286 287 287 288
265 265 264 266 266 266 265 265 267 267 268 268 268 268 269 271 272 273 274 274 275 275 275 276 278 278 279 280 281 282 283 283 283 284 284 284 285 285 286 286 287 288 287
Height
5786 5790 5793 5796 5799 5802 5805 5808 5811 5814 5816 5819 5821 5823 5825 5826 5827 5828 5829 5829 5830 5830 5830 5830 5829 5829 5829 5828 5827 5826 5825 5824 5823 5822 5821 5820 5819 5817 5816 5814 5813 5811 5809
5779 5783 5786 5790 5793 5796 5799 5802 5805 5808 5811 5813 5815 5818 5819 5821 5822 5823 5824 5824 5825 5825 5825 5825 5824 5824 5824 5823 5822 5821 5820 5819 5818 5817 5816 5815 5814 5812 5810 5809 5807 5806 5804
5771 5775 5779 5783 5787 5790 5793 5796 5799 5802 5805 5807 5810 5812 5814 5815 5816 5817 5818 5819 5819 5820 5819 5819 5819 5819 5818 5818 5817 5816 5815 5814 5813 5812 5810 5809 5808 5806 5805 5803 5801 5799 5798
5763 5767 5771 5775 5779 5783 5786 5789 5792 5795 5799 5801 5804 5806 5808 5809 5811 5812 5812 5813 5814 5814 5814 5814 5813 5813 5812 5812 5811 5810 5809 5808 5807 5806 5804 5803 5801 5800 5798 5796 5795 5793 5791
5754 5759 5763 5768 5772 5776 5779 5782 5785 5789 5792 5795 5797 5799 5801 5803 5804 5805 5806 5807 5808 5808 5808 5808 5807 5807 5806 5805 5805 5804 5803 5801 5800 5799 5797 5796 5794 5793 5791 5789 5787 5785 5784
5746 5751 5756 5760 5765 5768 5771 5775 5778 5782 5785 5788 5791 5793 5795 5796 5798 5799 5800 5800 5801 5801 5801 5801 5800 5800 5799 5798 5798 5797 5796 5795 5793 5792 5790 5789 5787 5785 5784 5782 5780 5778 5775
5737 5742 5748 5753 5757 5760 5764 5767 5771 5774 5778 5781 5784 5786 5788 5789 5791 5792 5793 5793 5794 5794 5794 5794 5793 5792 5792 5791 5790 5789 5788 5787 5786 5784 5783 5781 5779 5777 5776 5773 5771 5769 5767
5729 5734 5739 5744 5749 5752 5756 5760 5764 5767 5770 5773 5777 5779 5781 5783 5783 5784 5785 5786 5786 5786 5786 5786 5785 5785 5784 5783 5782 5781 5780 5779 5777 5776 5774 5773 5771 5769 5767 5765 5762 5760 5758
5720 5726 5731 5736 5741 5745 5749 5753 5756 5760 5763 5766 5769 5771 5773 5775 5776 5777 5777 5778 5778 5778 5778 5778 5777 5776 5776 5775 5774 5772 5771 5770 5768 5767 5765 5763 5762 5759 5757 5755 5753 5751 5748
5713 5718 5723 5728 5733 5737 5741 5745 5749 5752 5755 5758 5760 5763 5765 5766 5768 5769 5769 5769 5769 5769 5769 5769 5768 5767 5767 5766 5764 5763 5762 5760 5759 5757 5755 5754 5752 5750 5748 5745 5743 5740 5738
5705 5710 5715 5720 5724 5729 5733 5736 5740 5743 5746 5749 5751 5754 5756 5757 5758 5760 5760 5761 5761 5760 5760 5760 5759 5758 5757 5756 5755 5753 5752 5750 5749 5747 5745 5743 5741 5739 5737 5734 5732 5729 5727
5697 5702 5707 5711 5716 5720 5724 5728 5731 5734 5737 5740 5742 5744 5746 5748 5749 5750 5751 5751 5751 5751 5750 5749 5749 5748 5747 5746 5745 5743 5741 5740 5738 5736 5734 5732 5730 5728 5725 5723 5720 5717 5715
5689 5693 5698 5702 5707 5711 5714 5718 5721 5724 5727 5730 5732 5735 5737 5738 5739 5741 5741 5741 5741 5741 5740 5739 5738 5737 5736 5735 5734 5732 5730 5728 5727 5725 5722 5720 5718 5715 5713 5710 5708 5705 5702
5681 5685 5689 5693 5698 5702 5706 5709 5712 5715 5717 5720 5722 5724 5726 5728 5729 5730 5730 5731 5731 5730 5729 5729 5728 5726 5725 5723 5722 5720 5718 5716 5715 5712 5710 5708 5705 5703 5700 5697 5695 5692 5689
5674 5677 5681 5685 5689 5693 5696 5700 5703 5705 5707 5710 5712 5714 5716 5717 5718 5719 5719 5720 5720 5719 5719 5717 5716 5715 5713 5711 5709 5708 5706 5704 5701 5699 5697 5694 5691 5689 5686 5683 5680 5678 5675
5666 5669 5672 5676 5680 5683 5686 5689 5692 5695 5697 5699 5701 5703 5704 5706 5707 5707 5708 5708 5708 5707 5707 5705 5704 5702 5700 5699 5697 5695 5693 5691 5688 5685 5683 5680 5677 5674 5671 5668 5666 5663 5660
5657 5661 5664 5666 5669 5672 5676 5679 5681 5684 5686 5688 5690 5691 5693 5694 5695 5695 5695 5696 5696 5695 5695 5693 5691 5690 5688 5686 5684 5682 5679 5677 5674 5671 5668 5665 5662 5659 5656 5653 5650 5647 5644
5649 5651 5654 5657 5659 5662 5665 5668 5671 5673 5675 5677 5678 5680 5681 5682 5682 5683 5683 5683 5683 5682 5682 5681 5679 5677 5675 5672 5670 5668 5665 5663 5660 5657 5653 5650 5647 5644 5641 5638 5634 5631 5628
5639 5642 5645 5647 5650 5652 5655 5657 5660 5662 5663 5665 5667 5668 5669 5670 5670 5671 5671 5670 5670 5669 5669 5668 5666 5663 5661 5658 5656 5654 5651 5648 5645 5641 5638 5635 5632 5628 5625 5622 5618 5615 5612
5631 5633 5635 5638 5640 5642 5644 5646 5648 5650 5652 5653 5655 5656 5657 5657 5657 5657 5657 5657 5656 5656 5655 5653 5652 5649 5647 5644 5642 5639 5637 5633 5630 5627 5623 5620 5617 5613 5610 5606 5602 5599 5595
5622 5624 5626 5628 5630 5631 5633 5635 5637 5638 5640 5641 5642 5643 5644 5644 5644 5644 5644 5643 5643 5641 5640 5639 5637 5635 5633 5630 5628 5625 5622 5619 5616 5612 5608 5605 5602 5598 5594 5590 5586 5582 5579
5613 5614 5616 5618 5619 5621 5622 5624 5626 5627 5628 5629 5630 5631 5631 5631 5631 5631 5630 5629 5628 5627 5626 5624 5622 5620 5618 5615 5613 5610 5607 5605 5602 5599 5594 5590 5586 5582 5578 5574 5570 5566 5563
5603 5605 5606 5607 5609 5610 5611 5612 5614 5615 5616 5617 5617 5618 5618 5618 5617 5617 5616 5615 5613 5612 5610 5609 5607 5605 5603 5600 5598 5595 5592 5589 5586 5582 5578 5576 5571 5567 5563 5558 5554 5551 5547
5594 5595 5596 5597 5598 5598 5599 5601 5601 5603 5604 5604 5604 5604 5604 5604 5603 5602 5601 5600 5598 5596 5595 5593 5592 5590 5587 5584 5582 5579 5577 5574 5571 5566 5562 5560 5556 5552 5548 5544 5539 5535 5531
5585 5586 5586 5587 5587 5587 5587 5588 5588 5589 5590 5590 5590 5590 5590 5589 5589 5587 5587 5585 5584 5582 5579 5578 5576 5574 5571 5568 5566 5563 5561 5558 5556 5552 5546 5544 5540 5537 5533 5529 5524 5519 5515
5575 5575 5576 5576 5576 5576 5575 5575 5575 5575 5576 5576 5576 5576 5575 5574 5573 5572 5571 5569 5568 5567 5565 5563 5561 5558 5556 5553 5550 5547 5544 5542 5539 5536 5532 5528 5524 5520 5519 5515 5509 5504 5500